Home > Weather > Hammerfest > Past weeks

Flag for Norway Past Weather in Hammerfest, Norway — Yesterday and Last 2 Weeks

Now
43 °F

Sunny.


Feels Like: 41 °F
Forecast: 45 / 59 °F
Wind: 3 mph from Northeast

Location: Hammerfest

Current Time: May 26, 2016 at 10:39:31 PM

Latest Report: May 26, 2016 at 9:50 PM


Visibility: 10 mi

Pressure: 30.21 "Hg

Humidity: 81%

Dew Point: 37 °F

Location of HammerfestLocation

Past Weather in Hammerfest — Graph

°F

Hammerfest Temperature Yesterday

Maximum temperature yesterday: 46 °F (at 11:50 AM)
Minimum temperature yesterday: 39 °F (at 11:50 PM)
Average temperature yesterday: 42 °F

High & Low Weather Summary for the Past Weeks

 TemperatureHumidityPressure
High61 °F (May 21, 2:50 PM)100% (May 23, 9:50 PM)30.27 "Hg (May 23, 9:50 PM)
Low36 °F (May 13, 1:50 AM)34% (May 21, 1:50 PM)29.30 "Hg (May 17, 6:50 AM)
Average45 °F66%29.76 "Hg
* Reported May 11 8:50 PM — May 26 8:50 PM, Hammerfest, Weather by CustomWeather, © 2016

Note: Actual official high and low records may vary slightly from our data, if they occured in-between our weather recording intervals... More about our weather records

Advertising

Hammerfest Weather History for the Previous 24 Hours

Scroll right to see more
 ConditionsComfort  
Time TempWeatherWind HumidityBarometerVisibility
8:50 PM
Thu, May 26
43 °FSunny.8 mph87%30.24 "Hg10 mi
7:50 PM46 °FSunny.7 mph76%30.24 "Hg10 mi
6:50 PM48 °FSunny.2 mph62%30.24 "Hg10 mi
5:50 PM48 °FPassing clouds.5 mph66%30.24 "HgN/A
4:50 PM48 °FPassing clouds.5 mph66%30.24 "HgN/A
3:50 PM48 °FPassing clouds.9 mph62%30.27 "HgN/A
2:50 PM46 °FBroken clouds.8 mph66%30.27 "HgN/A
1:50 PM45 °FPartly sunny.9 mph71%30.27 "HgN/A
12:50 PM45 °FBroken clouds.10 mph76%30.27 "HgN/A
11:50 AM46 °FBroken clouds.10 mph76%30.27 "HgN/A
10:50 AM43 °FBroken clouds.9 mph87%30.27 "HgN/A
9:50 AM43 °FPartly sunny.8 mph81%30.27 "HgN/A
8:50 AM43 °FBroken clouds.8 mph81%30.27 "HgN/A
7:50 AM41 °FBroken clouds.9 mph87%30.27 "HgN/A
6:50 AM41 °FBroken clouds.12 mph87%30.24 "HgN/A
5:50 AM41 °FBroken clouds.10 mph93%30.24 "HgN/A
4:50 AM41 °FBroken clouds.9 mph93%30.27 "HgN/A
3:50 AM41 °FScattered showers. Broken clouds.7 mph87%30.27 "HgN/A
2:50 AM41 °FBroken clouds.10 mph87%30.27 "HgN/A
1:50 AM41 °FBroken clouds.8 mph93%30.27 "HgN/A
12:50 AM41 °FBroken clouds.7 mph87%30.27 "HgN/A
11:50 PM
Wed, May 25
39 °FDrizzle. Broken clouds.3 mph93%30.27 "HgN/A
10:50 PM41 °FLight rain. Partly sunny.7 mph87%30.27 "HgN/A
Weather by CustomWeather, © 2016

See weather overviewHow to use our weather pages